[Iaude] MPEC W13: 2023 VN10 [a=1.06,e=0.25,i=12.1,H=22.2]
    mpec at marsden.cfa.harvard.edu 
    mpec at marsden.cfa.harvard.edu
       
    Fri Nov 17 02:38:08 EST 2023
    
    
  
M.P.E.C. 2023-W13                             Issued 2023 November 17, 07:36 UT
     The Minor Planet Electronic Circulars contain information on unusual
         minor planets, routine data on comets and natural satellites,
         and occasional editorial announcements.  They are published
    on behalf of Division F of the International Astronomical Union by the
          Minor Planet Center, Smithsonian Astrophysical Observatory,
                          Cambridge, MA 02138, U.S.A.
			  
             Prepared using the Tamkin Foundation Computer Network
                              MPC at CFA.HARVARD.EDU
            URL https://www.minorplanetcenter.net/    ISSN 1523-6714
                                   2023 VN10                                    
Observations:
     K23V10N*1C2023 11 15.31725406 45 10.746+60 57 04.97         18.29GVEW013703
     K23V10N 1C2023 11 15.32235106 45 04.417+60 56 29.00               VEW013703
     K23V10N 1C2023 11 15.32745206 44 57.970+60 55 51.82         19.10GVEW013703
     K23V10N 1C2023 11 15.33255106 44 51.749+60 55 17.08         19.88GVEW013703
     K23V10N  C2023 11 15.35320306 44 25.519+60 52 47.75         18.74GVEW013I52
     K23V10N  C2023 11 15.35340406 44 25.231+60 52 46.24         18.55GVEW013I52
     K23V10N  C2023 11 15.35359706 44 24.997+60 52 45.19         18.52GVEW013I52
     K23V10N  C2023 11 15.35378906 44 24.760+60 52 43.64         18.46GVEW013I52
     K23V10N  C2023 11 15.37219606 44 01.525+60 50 30.23         18.41GVEW013I52
     K23V10N  C2023 11 15.37239606 44 01.262+60 50 28.75         18.43GVEW013I52
     K23V10N  C2023 11 15.37259506 44 00.992+60 50 27.35         18.54GVEW013I52
     K23V10N  C2023 11 15.37278806 44 00.748+60 50 26.05         18.49GVEW013I52
     K23V10N KB2023 11 15.39322 06 43 32.07 +60 47 49.7          19.2 GVEW013734
     K23V10N KB2023 11 15.40222 06 43 20.76 +60 46 42.4          18.5 GVEW013734
     K23V10N KB2023 11 15.41103 06 43 09.67 +60 45 36.4          18.0 GVEW013734
     K23V10N KC2023 11 15.83109 06 35 10.15 +59 50 57.5                VEW013104
     K23V10N KC2023 11 15.83900 06 35 01.23 +59 49 58.9          18.9 GVEW013104
     K23V10N KC2023 11 15.84681 06 34 52.34 +59 49 00.9                VEW013104
     K23V10N KC2023 11 15.86426906 34 32.18 +59 46 47.9          18.9 GVEW013L06
     K23V10N KC2023 11 15.86498506 34 31.32 +59 46 43.0          18.8 GVEW013L06
     K23V10N KC2023 11 15.86578106 34 30.43 +59 46 36.6          19.2 GVEW013L06
     K23V10N KC2023 11 15.87040006 34 26.299+59 46 13.73         15.8 rZEW013L34
     K23V10N KC2023 11 15.87920 06 34 15.64 +59 45 11.5          19.4 VZEW013M63
     K23V10N KC2023 11 15.88032106 34 14.863+59 45 00.65         19.5 rZEW013L34
     K23V10N KC2023 11 15.88264 06 34 11.70 +59 44 46.2          18.6 VZEW013M63
     K23V10N KC2023 11 15.88586 06 34 07.97 +59 44 21.9          18.6 VZEW013M63
     K23V10N KC2023 11 15.88928 06 34 03.98 +59 43 56.8          19.4 VZEW013M63
     K23V10N KC2023 11 15.93170306 33 14.61 +59 38 28.4          18.2 GVEW013L01
     K23V10N KB2023 11 15.93183 06 33 14.37 +59 38 26.8          17.8 RZEW013106
     K23V10N KC2023 11 15.93393706 33 12.04 +59 38 11.5          18.1 GVEW013L01
     K23V10N KB2023 11 15.93572 06 33 09.88 +59 37 57.4          17.8 RZEW013106
     K23V10N KC2023 11 15.93617206 33 09.47 +59 37 54.5          18.4 GVEW013L01
     K23V10N KB2023 11 15.93961 06 33 05.37 +59 37 27.9          18.0 RZEW013106
     K23V10N KB2023 11 15.94351 06 33 00.86 +59 36 58.4          18.1 RZEW013106
     K23V10N 7C2023 11 16.08490706 30 19.368+59 18 52.83         18.4 GVEW013Z84
     K23V10N 7C2023 11 16.08582606 30 18.289+59 18 45.57         18.5 GVEW013Z84
     K23V10N 7C2023 11 16.08880306 30 14.829+59 18 22.02         18.8 GVEW013Z84
     K23V10N KC2023 11 16.28307406 26 47.80 +58 51 37.6          19.2 GVEW013U55
     K23V10N KC2023 11 16.28960206 26 37.77 +58 51 24.2          20.1 GVEW013H21
     K23V10N KC2023 11 16.29239706 26 34.60 +58 51 02.1          20.6 GVEW013H21
     K23V10N KC2023 11 16.29519306 26 31.46 +58 50 40.2          19.7 GVEW013H21
     K23V10N KB2023 11 16.29580 06 26 31.90 +58 50 32.3          19.1 GXEW013H36
     K23V10N KC2023 11 16.29654106 26 33.04 +58 49 53.7          19.0 GVEW013U55
     K23V10N KC2023 11 16.29798806 26 28.27 +58 50 17.8          19.3 GVEW013H21
     K23V10N KB2023 11 16.29913 06 26 28.17 +58 50 06.4          19.0 GXEW013H36
     K23V10N KB2023 11 16.30246 06 26 24.40 +58 49 39.9          18.8 GXEW013H36
     K23V10N  C2023 11 16.54260 06 22 12.65 +58 15 46.0          18.8 RoEW013C94
     K23V10N  C2023 11 16.54324 06 22 11.98 +58 15 39.8          18.5 RoEW013C94
     K23V10N  C2023 11 16.54390 06 22 11.30 +58 15 34.5          17.8 RoEW013C94
     K23V10N  C2023 11 16.54455 06 22 10.59 +58 15 30.3          18.2 RoEW013C94
     K23V10N  C2023 11 16.54523 06 22 09.95 +58 15 23.3          17.9 RoEW013C94
     K23V10N KB2023 11 16.91043506 15 57.70 +57 25 14.1          19.0 GXEW013958
     K23V10N KB2023 11 16.91453006 15 53.56 +57 24 42.0          18.8 GXEW013958
     K23V10N KB2023 11 16.91858806 15 49.43 +57 24 08.8          18.3 GXEW013958
     K23V10N KC2023 11 17.01497606 14 09.14 +57 11 02.2                VEW013204
     K23V10N KC2023 11 17.01950006 14 04.43 +57 10 24.5                VEW013204
     K23V10N KC2023 11 17.02490006 13 58.88 +57 09 39.5          18.5 GVEW013204
     K23V10N  C2023 11 17.04438 06 13 39.26 +57 06 58.3          19.7 RXEW013511
     K23V10N  C2023 11 17.04615 06 13 37.47 +57 06 44.9          19.6 RXEW013511
     K23V10N  C2023 11 17.04792 06 13 35.54 +57 06 28.7          20.0 RXEW013511
     K23V10N  C2023 11 17.04976 06 13 33.60 +57 06 13.2          19.6 RXEW013511
     K23V10N  C2023 11 17.05153 06 13 31.81 +57 05 59.3          19.6 RXEW013511
     K23V10N  C2023 11 17.05417 06 13 29.12 +57 05 35.9          19.6 RXEW013511
     K23V10N  C2023 11 17.05594 06 13 27.25 +57 05 21.1          19.3 RXEW013511
     K23V10N KB2023 11 17.05837 06 13 24.13 +57 04 44.7          17.6 GVEW013L65
     K23V10N KB2023 11 17.06765 06 13 14.55 +57 03 27.6          17.8 GVEW013L65
     K23V10N KC2023 11 17.07966006 13 07.98 +57 00 24.5          18.2 GVEW013U55
     K23V10N KC2023 11 17.08908006 12 59.15 +56 59 06.3          19.0 GVEW013U55
     K23V10N KC2023 11 17.11550706 12 26.926+56 56 42.25         18.4 GVEW013J95
     K23V10N KC2023 11 17.11619106 12 26.270+56 56 36.67         18.5 GVEW013J95
     K23V10N KC2023 11 17.11687206 12 25.553+56 56 30.48         18.5 GVEW013J95
     K23V10N KC2023 11 17.11755106 12 24.881+56 56 24.90         18.6 GVEW013J95
Observer details:
104 San Marcello Pistoiese.  Observers P. Bacci, M. Maestripieri.  Measurer P.
    Bacci.  0.60-m f/4.0 reflector + CCD.
106 Crni Vrh.  Observer H. Mikuz.  0.60-m f/3.3 reflector + CMO.
204 Schiaparelli Observatory.  Observers L. Buzzi, G. Galli.  0.84-m f/3.5
    reflector + CCD.
511 Haute Provence.  Observers D. Souami, W. Thuillot.  Measurers W. Thuillot,
    S. Bouquillon, F. Taris, T. Carlucci, C. Barache.  1.20-m f/6  reflector +
    CCD.
703 Catalina Sky Survey.  Observer J. B. Fazekas.  Measurers E. C. Beshore, D.
    Fay, J. B. Fazekas, D. C. Fuls, A. R. Gibbs, A. D. Grauer, H. Groeller, J.
    K. Hogan, R. A. Kowalski, S. M. Larson, G. J. Leonard, D. Rankin, R. L.
    Seaman, F. C. Shelly, K. W. Wierzchos.  0.68-m Schmidt + 10K CCD.
734 Farpoint Observatory, Eskridge.  Observers D. Cromer, G. Hug, D. Goodin,
    R. Valentine.  Measurer D. Cromer.  0.69-m f/3.54 reflector + CMO.
958 Observatoire de Dax.  Observer P. Dupouy.  0.50-m f/4.5 Reflector + CMO.
C94 MASTER-II Observatory, Tunka.  Observers Y. Kechin, V. Lipunov, E.
    Gorbovskoy, N. Tiurina, P. Balanutsa, V. Kornilov, A. Kuznetsov, O. Gress,
    D. Zimnukhov, S. Yazev, N. Budnev.  0.4-m f/2.5 reflector   CCD.
H21 Astronomical Research Observatory, Westfield.  Observer R. Holmes.
    Measurers T. Linder, R. Holmes, L. Horn.  0.76-m f/3.0 astrograph + CCD.
H36 Sandlot Observatory, Scranton.  Observer G. Hug.  0.56-m f/4.8 reflector +
    CMO.
I52 Steward Observatory, Mt. Lemmon Station.  Observer D. Rankin.  Measurers
    E. C. Beshore, D. Fay, J. B. Fazekas, D. C. Fuls, A. R. Gibbs, A. D.
    Grauer, H. Groeller, J. K. Hogan, R. A. Kowalski, S. M. Larson, G. J.
    Leonard, D. Rankin, R. L. Seaman, F. C. Shelly, K. W. Wierzchos.  1.0-m
    prime focus + CCD.
J95 Great Shefford.  Observer P. Birtwhistle.  0.41-m f/6.3 Schmidt-Cassegrain
    + CCD.
L01 Visnjan Observatory, Tican.  Observer K. Korlevic.  1.0-m f/2.9 reflector
    + CCD.
L06 Sormano 2 Observatory, Bellagio Via Lattea.  Observers E. Valli, G.
    Ventre.  Measurer P. Sicoli.  0.36m Schmidt Cassegrain + CCD.
L34 Galhassin Robotic Telescope, Isnello.  Observer A. Nastasi.  0.40-m f/3.8
    400mm Reflector + CCD.
L65 Bredenkamp Observatory, Bremen.  Observer H. Duin.  0.23-m f/6.3 reflector
    + CMO.
M63 RPF Observatory, Gagliano del Capo.  Observer D. Licchelli.  0.30-m f/5.3
    reflector + CCD.
U55 Golden Ears Observatory, Maple Ridge.  Observer B. Kumar.  0.25-m f/8
    reflector + CCD.
Z84 Calar Alto-Schmidt.  Observers F. Ocana, R. Kresken, M. Micheli, L.
    Conversi.  Measurers F. Ocana, M. Micheli.  0.8-m f/3 Schmidt + CCD.
Orbital elements:
2023 VN10                                                Earth MOID = 0.0761 AU
Epoch 2023 Sept. 13.0 TT = JDT 2460200.5                MPC                     
M  15.12133              (2000.0)            P               Q                  
n   0.90643258     Peri.   63.19905     +0.66182180     +0.72327257             
a   1.0574156      Node   249.68586     -0.74054643     +0.58987651             
e   0.2548766      Incl.   12.13565     -0.11654562     +0.35905777             
mailing list